TimeCST,TemperatureF,Dew PointF,Humidity,Sea Level PressureIn,VisibilityMPH,Wind Direction,Wind SpeedMPH,Gust SpeedMPH,PrecipitationIn,Events,Conditions,WindDirDegrees,DateUTC
12:10 AM,20.1,13.3,75,30.37,10.0,NNE,3.5,-,N/A,,Overcast,30,2014-02-07 06:10:00
12:30 AM,20.3,13.6,75,30.35,10.0,ENE,4.6,-,N/A,,Overcast,60,2014-02-07 06:30:00
12:50 AM,20.3,13.8,76,30.35,10.0,Calm,Calm,-,N/A,,Overcast,0,2014-02-07 06:50:00
1:10 AM,20.5,13.8,75,30.35,10.0,Calm,Calm,-,N/A,,Overcast,0,2014-02-07 07:10:00
1:30 AM,20.5,14.0,76,30.36,10.0,Calm,Calm,-,N/A,,Overcast,0,2014-02-07 07:30:00
1:50 AM,20.3,13.8,76,30.34,10.0,Calm,Calm,-,N/A,,Overcast,0,2014-02-07 07:50:00
2:10 AM,20.3,13.8,76,30.34,10.0,Calm,Calm,-,N/A,,Overcast,0,2014-02-07 08:10:00
2:30 AM,20.8,14.0,75,30.34,10.0,Calm,Calm,-,N/A,,Overcast,0,2014-02-07 08:30:00
2:50 AM,20.8,14.0,75,30.34,10.0,Calm,Calm,-,N/A,,Overcast,0,2014-02-07 08:50:00
3:10 AM,20.8,14.2,75,30.33,10.0,Calm,Calm,-,N/A,,Overcast,0,2014-02-07 09:10:00
3:30 AM,20.8,14.2,75,30.31,10.0,Calm,Calm,-,N/A,,Overcast,0,2014-02-07 09:30:00
3:50 AM,21.2,14.5,75,30.31,10.0,Calm,Calm,-,N/A,,Overcast,0,2014-02-07 09:50:00
4:10 AM,21.0,14.2,75,30.30,10.0,ESE,5.8,-,N/A,,Overcast,110,2014-02-07 10:10:00
4:30 AM,21.2,14.9,77,30.30,10.0,East,3.5,-,N/A,,Overcast,90,2014-02-07 10:30:00
4:50 AM,21.2,14.9,77,30.30,10.0,ENE,3.5,-,N/A,,Overcast,60,2014-02-07 10:50:00
5:10 AM,21.2,14.7,76,30.29,10.0,ENE,3.5,-,N/A,,Overcast,60,2014-02-07 11:10:00
5:30 AM,21.2,14.9,77,30.30,10.0,Calm,Calm,-,N/A,,Overcast,0,2014-02-07 11:30:00
5:50 AM,21.4,15.3,77,30.28,10.0,East,3.5,-,N/A,,Overcast,80,2014-02-07 11:50:00
6:10 AM,21.4,15.3,77,30.28,10.0,East,5.8,-,N/A,,Overcast,100,2014-02-07 12:10:00
6:30 AM,21.4,15.1,77,30.30,10.0,Calm,Calm,-,N/A,,Overcast,0,2014-02-07 12:30:00
6:50 AM,21.7,15.4,77,30.31,10.0,Calm,Calm,-,N/A,,Overcast,0,2014-02-07 12:50:00
7:10 AM,21.6,15.3,77,30.32,10.0,Calm,Calm,-,N/A,,Overcast,0,2014-02-07 13:10:00
7:30 AM,21.7,15.4,77,30.31,10.0,Calm,Calm,-,N/A,,Overcast,0,2014-02-07 13:30:00
7:50 AM,21.7,15.6,77,30.31,10.0,Calm,Calm,-,N/A,,Overcast,0,2014-02-07 13:50:00
8:10 AM,22.1,15.8,77,30.32,10.0,Calm,Calm,-,N/A,,Overcast,0,2014-02-07 14:10:00
8:30 AM,22.6,16.3,77,30.32,10.0,Calm,Calm,-,N/A,,Overcast,0,2014-02-07 14:30:00
8:50 AM,22.6,16.3,77,30.33,10.0,Calm,Calm,-,N/A,,Overcast,0,2014-02-07 14:50:00
9:10 AM,23.0,16.5,76,30.33,10.0,Calm,Calm,-,N/A,,Overcast,0,2014-02-07 15:10:00
9:30 AM,23.4,16.7,76,30.31,10.0,Calm,Calm,-,N/A,,Overcast,0,2014-02-07 15:30:00
9:50 AM,23.9,16.9,75,30.31,10.0,Calm,Calm,-,N/A,,Overcast,0,2014-02-07 15:50:00
10:15 AM,24.6,17.6,75,30.31,10.0,SSE,3.5,-,N/A,,Overcast,160,2014-02-07 16:15:00
10:30 AM,25.3,17.6,72,30.31,10.0,SSE,5.8,-,N/A,,Overcast,150,2014-02-07 16:30:00
10:50 AM,26.1,18.3,73,30.31,10.0,Calm,Calm,-,N/A,,Overcast,0,2014-02-07 16:50:00
11:10 AM,26.2,18.3,72,30.31,10.0,SSE,3.5,-,N/A,,Overcast,150,2014-02-07 17:10:00
11:30 AM,27.0,18.9,72,30.30,10.0,South,5.8,-,N/A,,Overcast,190,2014-02-07 17:30:00
11:50 AM,27.1,19.0,72,30.30,10.0,South,3.5,-,N/A,,Overcast,180,2014-02-07 17:50:00
12:10 PM,28.0,20.5,73,30.29,10.0,SSW,3.5,-,N/A,,Overcast,200,2014-02-07 18:10:00
12:30 PM,27.5,19.8,73,30.27,10.0,SSW,4.6,-,N/A,,Overcast,200,2014-02-07 18:30:00
12:50 PM,28.4,21.2,74,30.26,10.0,South,4.6,-,N/A,,Overcast,190,2014-02-07 18:50:00
1:10 PM,28.4,22.1,77,30.25,5.0,South,4.6,-,N/A,,Overcast,170,2014-02-07 19:10:00
1:30 PM,28.4,23.4,81,30.23,3.0,South,5.8,-,N/A,,Overcast,170,2014-02-07 19:30:00
1:50 PM,28.8,23.5,81,30.21,5.0,SSW,4.6,-,N/A,,Overcast,200,2014-02-07 19:50:00
2:10 PM,29.3,23.4,78,30.20,10.0,SW,4.6,-,N/A,,Overcast,220,2014-02-07 20:10:00
2:30 PM,30.0,24.1,79,30.20,10.0,SSW,4.6,-,N/A,,Overcast,210,2014-02-07 20:30:00
2:50 PM,31.1,24.4,76,30.18,10.0,SSE,5.8,-,N/A,,Overcast,150,2014-02-07 20:50:00
3:10 PM,30.9,24.1,76,30.17,10.0,SSE,5.8,-,N/A,,Overcast,160,2014-02-07 21:10:00
3:30 PM,32.9,25.5,74,30.16,10.0,SE,9.2,-,N/A,,Overcast,140,2014-02-07 21:30:00
3:50 PM,32.9,25.9,75,30.16,10.0,SSE,5.8,-,N/A,,Overcast,150,2014-02-07 21:50:00
4:10 PM,32.4,25.5,76,30.17,10.0,South,6.9,-,N/A,,Overcast,170,2014-02-07 22:10:00
4:30 PM,32.0,25.3,76,30.16,10.0,SSE,8.1,-,N/A,,Overcast,160,2014-02-07 22:30:00
4:50 PM,32.0,25.7,78,30.17,10.0,South,6.9,-,N/A,,Overcast,180,2014-02-07 22:50:00
5:10 PM,32.2,25.7,77,30.16,10.0,SSE,8.1,-,N/A,,Overcast,160,2014-02-07 23:10:00
5:30 PM,32.0,26.1,79,30.16,10.0,South,8.1,-,N/A,,Overcast,170,2014-02-07 23:30:00
5:50 PM,32.0,25.7,78,30.16,10.0,SSE,5.8,-,N/A,,Overcast,160,2014-02-07 23:50:00
6:10 PM,32.0,25.7,78,30.16,10.0,SSE,8.1,-,N/A,,Overcast,160,2014-02-08 00:10:00
6:30 PM,32.0,25.7,78,30.16,10.0,South,9.2,-,N/A,,Overcast,170,2014-02-08 00:30:00
6:50 PM,32.0,25.5,77,30.17,10.0,South,6.9,-,N/A,,Overcast,170,2014-02-08 00:50:00
7:10 PM,32.0,25.3,76,30.17,10.0,SSE,8.1,-,N/A,,Overcast,160,2014-02-08 01:10:00
7:30 PM,32.0,25.5,77,30.16,10.0,SSE,10.4,-,N/A,,Overcast,150,2014-02-08 01:30:00
7:50 PM,31.6,25.2,77,30.16,10.0,SSE,8.1,-,N/A,,Scattered Clouds,160,2014-02-08 01:50:00
8:10 PM,31.1,25.2,79,30.17,10.0,SSE,8.1,-,N/A,,Clear,150,2014-02-08 02:10:00
8:30 PM,30.6,24.8,79,30.17,10.0,SSE,6.9,-,N/A,,Clear,150,2014-02-08 02:30:00
8:50 PM,30.2,24.8,80,30.17,10.0,SE,8.1,-,N/A,,Clear,140,2014-02-08 02:50:00
9:10 PM,29.8,24.8,81,30.17,10.0,SE,5.8,-,N/A,,Clear,140,2014-02-08 03:10:00
9:30 PM,29.3,25.0,84,30.17,10.0,SSE,8.1,-,N/A,,Clear,150,2014-02-08 03:30:00
9:50 PM,29.3,25.2,85,30.15,10.0,SE,6.9,-,N/A,,Clear,140,2014-02-08 03:50:00
10:10 PM,29.1,25.3,86,30.16,10.0,SSE,6.9,-,N/A,,Clear,150,2014-02-08 04:10:00
10:30 PM,28.9,25.7,88,30.15,7.0,SSE,5.8,-,N/A,,Clear,150,2014-02-08 04:30:00
10:50 PM,28.4,27.0,94,30.14,7.0,SSE,6.9,-,N/A,,Clear,150,2014-02-08 04:50:00
11:10 PM,28.9,27.5,94,30.13,7.0,SSE,5.8,-,N/A,,Clear,150,2014-02-08 05:10:00
11:30 PM,29.1,27.9,95,30.13,7.0,SSE,5.8,-,N/A,,Clear,150,2014-02-08 05:30:00
11:50 PM,29.1,28.0,96,30.13,7.0,South,5.8,-,N/A,,Scattered Clouds,170,2014-02-08 05:50:00